Location: Unspecified
(38.7273°N, 77.0677°W)
Time: 04:48:22
(UTC-04:00)

CAS-4B - Visible Passes

Search period start: 21 September 2021 00:00
Search period end: 01 October 2021 00:00
Orbit: 530 x 540 km, 43.0° (Epoch: 20 September)

Date Brightness Start Highest point End Pass type
(mag) Time Alt. Az. Time Alt. Az. Time Alt. Az.
21 Sep ? 05:12:58 45° S 05:13:43 52° SSE 05:17:41 10° ENE visible
22 Sep ? 05:02:49 65° SSE 05:02:52 65° SSE 05:06:53 10° ENE visible
23 Sep ? 04:52:36 62° E 04:52:36 62° E 04:56:05 10° ENE visible
23 Sep ? 06:28:24 10° W 06:32:19 46° N 06:36:16 10° ENE visible
24 Sep ? 04:42:21 45° ENE 04:42:21 45° ENE 04:45:15 10° ENE visible
24 Sep ? 06:17:41 10° WNW 06:21:33 45° N 06:25:28 10° ENE visible
25 Sep ? 04:32:05 33° ENE 04:32:05 33° ENE 04:34:26 10° ENE visible
25 Sep ? 06:07:24 13° WNW 06:10:47 44° N 06:14:42 10° ENE visible
26 Sep ? 04:21:48 25° ENE 04:21:48 25° ENE 04:23:35 10° ENE visible
26 Sep ? 05:57:07 16° WNW 06:00:00 44° N 06:03:55 10° ENE visible
27 Sep ? 04:11:31 19° ENE 04:11:31 19° ENE 04:12:45 10° ENE visible
27 Sep ? 05:46:50 21° WNW 05:49:14 45° N 05:53:09 10° ENE visible
28 Sep ? 04:01:15 14° ENE 04:01:15 14° ENE 04:01:56 10° ENE visible
28 Sep ? 05:36:34 26° NW 05:38:28 47° N 05:42:23 10° E visible
29 Sep ? 03:51:02 10° ENE 03:51:02 10° ENE 03:51:06 10° ENE visible
29 Sep ? 05:26:21 35° NW 05:27:40 50° N 05:31:38 10° E visible
30 Sep ? 05:16:11 47° NNW 05:16:53 55° NNE 05:20:52 10° E visible
